QPF
0.00 0.00 0.00 0.00 0.00 0.00 0.00 0.00 0.00 0.00 0.00 0.00 0.00 0.00 0.00 0.00 0.00 0.00 0.00 0.00 0.00 0.00 0.00 0.00 0.00 0.00 0.00 0.00 0.00 0.00 0.00 0.00 0.00 0.00 0.01 0.01 0.01 0.01 0.00 0.01 0.00 0.00 0.00 0.00
0.00 0.00 0.00 0.00 0.00 0.00 0.00 0.00 0.00 0.00 0.00 0.00 0.00 0.00 0.00 0.00 0.00 0.00 0.00 0.00 0.00 0.00 0.00 0.00 0.00 0.00 0.00 0.00 0.00 0.00 0.00 0.00 0.00 0.00 0.00 0.00 0.00 0.00 0.00 0.00 0.00 0.00 0.00 0.00
0.00 0.00 0.00 0.00 0.00 0.00 0.00 0.00 0.00 0.00 0.00 0.00 0.00 0.00 0.00 0.00 0.00 0.00 0.00 0.00 0.00 0.00 0.00 0.00 0.00 0.00 0.00 0.00 0.00 0.00 0.00 0.00 0.00 0.00 0.00 0.00 0.00 0.00 0.00 0.00 0.00 0.00 0.00 0.00
0.00 0.00 0.00 0.00 0.00 0.00 0.00 0.00 0.00 0.00 0.00 0.00 0.00 0.00 0.00 0.00 0.00 0.00 0.00 0.00 0.00 0.00 0.00 0.00 0.00 0.00 0.00 0.00 0.00 0.00 0.00 0.00 0.00 0.00 0.00 0.00 0.00 0.00 0.00 0.00 0.00 0.00 0.00 0.00
0.00 0.00 0.00 0.00 0.00 0.00 0.00 0.00 0.00 0.00 0.00 0.00 0.00 0.00 0.00 0.00 0.00 0.00 0.00 0.00 0.00 0.00 0.00 0.00 0.00 0.00 0.00 0.00 0.00 0.00 0.00 0.00 0.00 0.00 0.00 0.00 0.00 0.00 0.00 0.00 0.00 0.00 0.00 0.00
0.00 0.00 0.00 0.00 0.00 0.00 0.00 0.00 0.00 0.00 0.00 0.00 0.00 0.00 0.00 0.00 0.00 0.00 0.00 0.00 0.00 0.00 0.00 0.00 0.00 0.00 0.00 0.00 0.00 0.00 0.00 0.00 0.00 0.00 0.00 0.00 0.00 0.00 0.00 0.00 0.00 0.00 0.00 0.00
0.00 0.00 0.00 0.00 0.00 0.00 0.00 0.00 0.00 0.00 0.00 0.00 0.00 0.00 0.00 0.00 0.00 0.00 0.00 0.00 0.00 0.00 0.00 0.00 0.00 0.00 0.00 0.00 0.00 0.00 0.00 0.00 0.00 0.00 0.00 0.00 0.00 0.00 0.00 0.00 0.00 0.00 0.00 0.00
0.00 0.00 0.00 0.00 0.00 0.00 0.00 0.00 0.00 0.00 0.00 0.00 0.00 0.00 0.00 0.00 0.00 0.00 0.00 0.00 0.00 0.00 0.00 0.00 0.00 0.00 0.00 0.00 0.00 0.00 0.00 0.00 0.00 0.00 0.00 0.00 0.00 0.00 0.00 0.00 0.00 0.00 0.00 0.00
0.00 0.00 0.00 0.00 0.00 0.00 0.00 0.00 0.00 0.00 0.00 0.00 0.00 0.00 0.00 0.00 0.00 0.00 0.00 0.00 0.00 0.00 0.00 0.00 0.00 0.00 0.00 0.00 0.00 0.00 0.00 0.00 0.00 0.00 0.00 0.00 0.00 0.00 0.00 0.00 0.00 0.00 0.00 0.00
0.00 0.00 0.00 0.00 0.00 0.00 0.00 0.00 0.00 0.00 0.00 0.00 0.00 0.00 0.00 0.00 0.00 0.00 0.00 0.00 0.00 0.00 0.00 0.00 0.00 0.00 0.00 0.00 0.00 0.00 0.00 0.00 0.00 0.00 0.00 0.00 0.00 0.00 0.00 0.00 0.00 0.00 0.00 0.00
0.00 0.00 0.00 0.00 0.00 0.00 0.00 0.00 0.00 0.00 0.00 0.00 0.00 0.00 0.00 0.00 0.00 0.00 0.00 0.00 0.00 0.00 0.00 0.00 0.00 0.00 0.00 0.00 0.00 0.00 0.00 0.00 0.00 0.00 0.00 0.00 0.00 0.00 0.00 0.00 0.00 0.00 0.00 0.00
0.00 0.00 0.00 0.00 0.00 0.00 0.00 0.00 0.00 0.00 0.00 0.00 0.00 0.00 0.00 0.00 0.00 0.00 0.00 0.00 0.00 0.00 0.00 0.00 0.00 0.00 0.00 0.00 0.00 0.00 0.00 0.00 0.00 0.00 0.00 0.00 0.00 0.00 0.00 0.00 0.00 0.00 0.00 0.00
0.00 0.00 0.00 0.00 0.00 0.00 0.00 0.00 0.00 0.00 0.00 0.00 0.00 0.00 0.00 0.00 0.00 0.00 0.00 0.00 0.00 0.00 0.00 0.00 0.00 0.00 0.00 0.00 0.00 0.00 0.00 0.00 0.00 0.00 0.00 0.00 0.00 0.00 0.00 0.00 0.00 0.00 0.00 0.00
0.00 0.00 0.00 0.00 0.00 0.00 0.00 0.00 0.00 0.00 0.00 0.00 0.00 0.00 0.00 0.00 0.00 0.00 0.00 0.00 0.00 0.00 0.00 0.00 0.00 0.00 0.00 0.00 0.00 0.00 0.00 0.00 0.00 0.00 0.00 0.00 0.00 0.00 0.00 0.00 0.00 0.00 0.00 0.00
0.00 0.00 0.00 0.00 0.00 0.00 0.00 0.00 0.00 0.00 0.00 0.00 0.00 0.00 0.00 0.00 0.00 0.00 0.00 0.00 0.00 0.00 0.00 0.00 0.00 0.00 0.00 0.00 0.00 0.00 0.00 0.00 0.00 0.00 0.00 0.00 0.00 0.00 0.00 0.00 0.00 0.00 0.00 0.00
0.00 0.00 0.00 0.00 0.00 0.00 0.00 0.00 0.00 0.00 0.00 0.00 0.00 0.00 0.00 0.00 0.00 0.00 0.00 0.00 0.00 0.00 0.00 0.00 0.00 0.00 0.00 0.00 0.00 0.00 0.00 0.00 0.00 0.00 0.00 0.00 0.00 0.00 0.00 0.00 0.00 0.00 0.00 0.00
0.00 0.00 0.00 0.00 0.00 0.00 0.00 0.00 0.00 0.00 0.00 0.00 0.00 0.00 0.00 0.00 0.00 0.00 0.00 0.00 0.00 0.00 0.00 0.00 0.00 0.00 0.00 0.00 0.00 0.00 0.00 0.00 0.00 0.00 0.00 0.00 0.00 0.00 0.00 0.00 0.00 0.00 0.00 0.00
0.00 0.00 0.00 0.00 0.00 0.00 0.00 0.00 0.00 0.00 0.00 0.00 0.00 0.00 0.00 0.00 0.00 0.00 0.00 0.00 0.00 0.00 0.00 0.00 0.00 0.00 0.00 0.00 0.00 0.00 0.00 0.00 0.00 0.00 0.00 0.00 0.00 0.00 0.00 0.00 0.00 0.00 0.00 0.00
0.00 0.00 0.00 0.00 0.00 0.00 0.00 0.00 0.00 0.00 0.00 0.00 0.00 0.00 0.00 0.00 0.00 0.00 0.00 0.00 0.00 0.00 0.00 0.00 0.00 0.00 0.00 0.00 0.00 0.00 0.00 0.00 0.00 0.00 0.00 0.00 0.00 0.00 0.00 0.00 0.00 0.00 0.00 0.00
0.00 0.00 0.00 0.00 0.00 0.00 0.00 0.00 0.00 0.00 0.00 0.00 0.00 0.00 0.00 0.00 0.00 0.00 0.00 0.00 0.00 0.00 0.00 0.00 0.00 0.00 0.00 0.00 0.00 0.00 0.00 0.00 0.00 0.00 0.00 0.00 0.00 0.00 0.00 0.00 0.00 0.00 0.00 0.00
0.00 0.00 0.00 0.00 0.00 0.00 0.00 0.00 0.00 0.00 0.00 0.00 0.00 0.00 0.00 0.00 0.00 0.00 0.00 0.00 0.00 0.00 0.00 0.00 0.00 0.00 0.00 0.00 0.00 0.00 0.00 0.00 0.00 0.00 0.00 0.00 0.00 0.00 0.00 0.00 0.00 0.00 0.00 0.00
0.00 0.00 0.00 0.00 0.00 0.00 0.00 0.00 0.00 0.00 0.00 0.00 0.00 0.00 0.00 0.00 0.00 0.00 0.00 0.00 0.00 0.00 0.00 0.00 0.00 0.00 0.00 0.00 0.00 0.00 0.00 0.00 0.00 0.00 0.00 0.00 0.00 0.00 0.00 0.00 0.00 0.00 0.00 0.00
0.00 0.00 0.00 0.00 0.00 0.00 0.00 0.00 0.00 0.00 0.00 0.00 0.00 0.00 0.00 0.00 0.00 0.00 0.00 0.00 0.00 0.00 0.00 0.00 0.00 0.00 0.00 0.00 0.00 0.00 0.00 0.00 0.00 0.00 0.00 0.00 0.00 0.00 0.00 0.00 0.00 0.00 0.00 0.00
0.00 0.00 0.00 0.00 0.00 0.00 0.00 0.00 0.00 0.00 0.00 0.00 0.00 0.00 0.00 0.00 0.00 0.00 0.00 0.00 0.00 0.00 0.00 0.00 0.00 0.00 0.00 0.00 0.00 0.00 0.00 0.00 0.00 0.00 0.00 0.00 0.00 0.00 0.00 0.00 0.00 0.00 0.00 0.00
0.00 0.00 0.00 0.00 0.00 0.00 0.00 0.00 0.00 0.00 0.00 0.00 0.00 0.00 0.00 0.00 0.00 0.00 0.00 0.00 0.00 0.00 0.00 0.00 0.00 0.00 0.00 0.00 0.00 0.00 0.00 0.00 0.00 0.00 0.00 0.00 0.00 0.00 0.00 0.00 0.00 0.00 0.00 0.00
0.00 0.00 0.00 0.00 0.00 0.00 0.00 0.00 0.00 0.00 0.00 0.00 0.00 0.00 0.00 0.00 0.00 0.00 0.00 0.00 0.00 0.00 0.00 0.00 0.00 0.00 0.00 0.00 0.00 0.00 0.00 0.00 0.00 0.00 0.00 0.00 0.00 0.00 0.00 0.00 0.00 0.00 0.00 0.00
MSLP
1016.33 1017.11 1017.77 1018.31 1018.74 1019.07 1019.31 1019.44 1019.44 1019.29 1018.98 1018.49 1017.87 1017.15 1016.42 1015.77 1015.27 1014.98 1014.89 1015.00 1015.24 1015.53 1015.81 1016.01 1016.11 1016.11 1016.05 1016.00 1016.01 1016.15 1016.44 1016.88 1017.44 1018.07 1018.71 1019.31 1019.83 1020.24 1020.56 1020.80 1020.98 1021.14 1021.30 1021.47
1016.63 1017.30 1017.85 1018.30 1018.67 1019.00 1019.28 1019.50 1019.61 1019.56 1019.31 1018.85 1018.18 1017.37 1016.51 1015.71 1015.07 1014.66 1014.52 1014.63 1014.93 1015.33 1015.74 1016.07 1016.27 1016.35 1016.32 1016.26 1016.24 1016.33 1016.58 1016.99 1017.54 1018.18 1018.85 1019.49 1020.04 1020.47 1020.79 1021.02 1021.18 1021.31 1021.44 1021.59
1016.71 1017.25 1017.67 1018.03 1018.36 1018.70 1019.06 1019.40 1019.64 1019.72 1019.56 1019.13 1018.44 1017.55 1016.55 1015.60 1014.81 1014.28 1014.07 1014.17 1014.52 1015.02 1015.56 1016.03 1016.36 1016.54 1016.58 1016.55 1016.53 1016.59 1016.81 1017.19 1017.73 1018.37 1019.05 1019.70 1020.26 1020.70 1021.02 1021.23 1021.37 1021.48 1021.59 1021.72
1016.60 1017.00 1017.30 1017.57 1017.88 1018.27 1018.72 1019.19 1019.58 1019.80 1019.75 1019.36 1018.66 1017.69 1016.58 1015.47 1014.53 1013.87 1013.58 1013.65 1014.03 1014.61 1015.27 1015.89 1016.36 1016.66 1016.80 1016.83 1016.83 1016.89 1017.08 1017.43 1017.94 1018.56 1019.23 1019.88 1020.44 1020.89 1021.20 1021.40 1021.52 1021.61 1021.70 1021.82
1016.36 1016.63 1016.83 1017.05 1017.36 1017.79 1018.35 1018.95 1019.50 1019.85 1019.89 1019.56 1018.85 1017.82 1016.60 1015.36 1014.27 1013.49 1013.11 1013.13 1013.52 1014.17 1014.93 1015.67 1016.28 1016.71 1016.95 1017.05 1017.09 1017.16 1017.34 1017.66 1018.14 1018.73 1019.37 1020.00 1020.55 1020.99 1021.29 1021.49 1021.60 1021.69 1021.77 1021.87
1016.05 1016.22 1016.35 1016.54 1016.87 1017.37 1018.02 1018.75 1019.42 1019.89 1020.02 1019.74 1019.02 1017.95 1016.64 1015.28 1014.07 1013.17 1012.69 1012.67 1013.04 1013.72 1014.56 1015.40 1016.13 1016.67 1017.01 1017.19 1017.28 1017.37 1017.54 1017.83 1018.27 1018.82 1019.43 1020.03 1020.56 1020.99 1021.30 1021.50 1021.62 1021.71 1021.79 1021.90
1015.72 1015.83 1015.92 1016.11 1016.47 1017.03 1017.77 1018.60 1019.36 1019.91 1020.11 1019.86 1019.14 1018.03 1016.66 1015.22 1013.92 1012.93 1012.37 1012.28 1012.63 1013.32 1014.19 1015.10 1015.91 1016.55 1016.98 1017.23 1017.36 1017.48 1017.65 1017.92 1018.33 1018.84 1019.41 1019.99 1020.51 1020.93 1021.24 1021.46 1021.60 1021.70 1021.80 1021.92
1015.36 1015.45 1015.55 1015.77 1016.17 1016.79 1017.59 1018.47 1019.29 1019.88 1020.11 1019.87 1019.16 1018.03 1016.64 1015.16 1013.80 1012.75 1012.13 1011.98 1012.29 1012.95 1013.83 1014.77 1015.63 1016.32 1016.82 1017.13 1017.32 1017.47 1017.65 1017.92 1018.31 1018.79 1019.34 1019.90 1020.41 1020.84 1021.17 1021.40 1021.57 1021.70 1021.82 1021.95
1014.94 1015.06 1015.21 1015.48 1015.93 1016.59 1017.42 1018.32 1019.14 1019.73 1019.95 1019.71 1019.01 1017.89 1016.50 1015.02 1013.66 1012.59 1011.93 1011.74 1012.00 1012.62 1013.47 1014.39 1015.27 1015.99 1016.53 1016.90 1017.15 1017.34 1017.55 1017.84 1018.23 1018.72 1019.26 1019.81 1020.33 1020.76 1021.11 1021.37 1021.57 1021.72 1021.86 1022.00
1014.43 1014.62 1014.84 1015.18 1015.68 1016.37 1017.19 1018.06 1018.84 1019.39 1019.57 1019.32 1018.63 1017.55 1016.20 1014.77 1013.45 1012.39 1011.73 1011.51 1011.72 1012.28 1013.07 1013.95 1014.80 1015.54 1016.11 1016.53 1016.84 1017.10 1017.37 1017.71 1018.13 1018.63 1019.19 1019.75 1020.28 1020.73 1021.10 1021.38 1021.59 1021.75 1021.90 1022.04
1013.80 1014.08 1014.40 1014.81 1015.36 1016.05 1016.84 1017.64 1018.34 1018.80 1018.93 1018.66 1017.99 1016.96 1015.70 1014.36 1013.11 1012.12 1011.48 1011.24 1011.40 1011.89 1012.61 1013.43 1014.24 1014.96 1015.56 1016.03 1016.42 1016.76 1017.11 1017.52 1018.01 1018.56 1019.15 1019.73 1020.27 1020.73 1021.11 1021.39 1021.60 1021.76 1021.90 1022.02
1013.07 1013.47 1013.89 1014.37 1014.95 1015.62 1016.34 1017.04 1017.63 1017.99 1018.05 1017.75 1017.10 1016.15 1015.00 1013.78 1012.66 1011.75 1011.15 1010.92 1011.04 1011.45 1012.08 1012.83 1013.58 1014.29 1014.90 1015.43 1015.90 1016.34 1016.80 1017.31 1017.88 1018.49 1019.11 1019.72 1020.27 1020.74 1021.10 1021.38 1021.57 1021.71 1021.81 1021.90
1012.32 1012.83 1013.34 1013.88 1014.47 1015.09 1015.72 1016.29 1016.74 1016.98 1016.96 1016.63 1016.02 1015.16 1014.14 1013.07 1012.09 1011.29 1010.76 1010.54 1010.62 1010.97 1011.51 1012.17 1012.87 1013.55 1014.19 1014.78 1015.33 1015.89 1016.46 1017.08 1017.73 1018.40 1019.07 1019.70 1020.25 1020.70 1021.05 1021.29 1021.45 1021.55 1021.60 1021.64
1011.63 1012.24 1012.83 1013.40 1013.97 1014.51 1015.02 1015.45 1015.74 1015.85 1015.74 1015.39 1014.82 1014.06 1013.18 1012.28 1011.45 1010.78 1010.33 1010.13 1010.19 1010.48 1010.94 1011.52 1012.16 1012.81 1013.47 1014.12 1014.76 1015.42 1016.11 1016.82 1017.56 1018.29 1018.99 1019.62 1020.16 1020.59 1020.90 1021.10 1021.21 1021.25 1021.26 1021.24
1011.12 1011.80 1012.43 1013.00 1013.51 1013.95 1014.31 1014.57 1014.70 1014.68 1014.48 1014.12 1013.59 1012.93 1012.20 1011.47 1010.80 1010.27 1009.91 1009.75 1009.79 1010.03 1010.42 1010.93 1011.52 1012.15 1012.82 1013.51 1014.23 1014.98 1015.76 1016.56 1017.35 1018.12 1018.84 1019.46 1019.98 1020.36 1020.63 1020.78 1020.85 1020.85 1020.81 1020.74
1010.83 1011.55 1012.18 1012.70 1013.12 1013.43 1013.63 1013.71 1013.68 1013.53 1013.25 1012.87 1012.39 1011.85 1011.27 1010.71 1010.21 1009.81 1009.55 1009.44 1009.49 1009.69 1010.03 1010.48 1011.02 1011.63 1012.31 1013.03 1013.81 1014.62 1015.46 1016.30 1017.13 1017.91 1018.61 1019.21 1019.69 1020.03 1020.26 1020.37 1020.40 1020.36 1020.28 1020.18
1010.79 1011.49 1012.08 1012.52 1012.82 1012.97 1012.99 1012.90 1012.70 1012.43 1012.09 1011.71 1011.29 1010.85 1010.43 1010.03 1009.70 1009.44 1009.29 1009.25 1009.32 1009.51 1009.81 1010.23 1010.73 1011.32 1011.99 1012.73 1013.52 1014.36 1015.22 1016.08 1016.90 1017.66 1018.33 1018.89 1019.32 1019.62 1019.81 1019.89 1019.90 1019.84 1019.75 1019.62
1010.92 1011.58 1012.07 1012.39 1012.54 1012.52 1012.37 1012.11 1011.77 1011.40 1011.02 1010.64 1010.29 1009.97 1009.70 1009.48 1009.31 1009.20 1009.16 1009.20 1009.32 1009.52 1009.81 1010.20 1010.68 1011.25 1011.90 1012.63 1013.41 1014.24 1015.08 1015.91 1016.69 1017.40 1018.01 1018.51 1018.90 1019.16 1019.32 1019.39 1019.39 1019.34 1019.24 1019.11
1011.11 1011.68 1012.06 1012.23 1012.22 1012.03 1011.71 1011.31 1010.86 1010.42 1010.02 1009.68 1009.41 1009.22 1009.10 1009.04 1009.04 1009.08 1009.17 1009.30 1009.48 1009.71 1010.02 1010.40 1010.86 1011.40 1012.03 1012.72 1013.47 1014.25 1015.04 1015.80 1016.51 1017.14 1017.68 1018.12 1018.46 1018.69 1018.83 1018.91 1018.91 1018.87 1018.78 1018.64
1011.22 1011.67 1011.91 1011.94 1011.77 1011.43 1010.98 1010.47 1009.96 1009.49 1009.10 1008.81 1008.64 1008.58 1008.61 1008.72 1008.88 1009.07 1009.28 1009.51 1009.77 1010.05 1010.38 1010.77 1011.22 1011.74 1012.33 1012.98 1013.67 1014.38 1015.09 1015.76 1016.37 1016.92 1017.37 1017.74 1018.03 1018.23 1018.36 1018.43 1018.45 1018.42 1018.34 1018.20
1011.13 1011.46 1011.56 1011.44 1011.14 1010.69 1010.16 1009.59 1009.05 1008.59 1008.26 1008.06 1007.99 1008.07 1008.24 1008.50 1008.81 1009.14 1009.47 1009.81 1010.14 1010.48 1010.84 1011.24 1011.69 1012.19 1012.74 1013.33 1013.95 1014.58 1015.19 1015.75 1016.27 1016.71 1017.08 1017.38 1017.61 1017.78 1017.90 1017.97 1017.99 1017.96 1017.88 1017.74
1010.79 1010.98 1010.95 1010.73 1010.33 1009.82 1009.25 1008.68 1008.18 1007.78 1007.52 1007.42 1007.48 1007.68 1007.99 1008.38 1008.81 1009.26 1009.70 1010.13 1010.53 1010.93 1011.33 1011.75 1012.19 1012.67 1013.18 1013.72 1014.26 1014.79 1015.30 1015.77 1016.18 1016.52 1016.80 1017.03 1017.20 1017.33 1017.42 1017.48 1017.49 1017.46 1017.36 1017.19
1010.16 1010.24 1010.11 1009.82 1009.39 1008.87 1008.33 1007.81 1007.39 1007.09 1006.94 1006.95 1007.13 1007.44 1007.87 1008.36 1008.89 1009.43 1009.95 1010.44 1010.91 1011.35 1011.78 1012.21 1012.65 1013.11 1013.58 1014.06 1014.53 1014.98 1015.39 1015.76 1016.07 1016.32 1016.52 1016.67 1016.78 1016.86 1016.91 1016.94 1016.92 1016.86 1016.73 1016.52
1009.31 1009.30 1009.11 1008.79 1008.38 1007.92 1007.46 1007.05 1006.75 1006.57 1006.55 1006.68 1006.96 1007.37 1007.87 1008.44 1009.03 1009.62 1010.19 1010.72 1011.22 1011.69 1012.14 1012.58 1013.01 1013.45 1013.89 1014.31 1014.72 1015.10 1015.43 1015.71 1015.93 1016.10 1016.21 1016.29 1016.34 1016.36 1016.35 1016.32 1016.26 1016.14 1015.97 1015.71
1008.32 1008.24 1008.04 1007.76 1007.41 1007.06 1006.73 1006.46 1006.30 1006.27 1006.38 1006.62 1006.99 1007.47 1008.02 1008.62 1009.24 1009.85 1010.43 1010.97 1011.48 1011.95 1012.40 1012.84 1013.26 1013.67 1014.07 1014.46 1014.81 1015.12 1015.39 1015.59 1015.74 1015.83 1015.88 1015.88 1015.86 1015.81 1015.73 1015.63 1015.50 1015.32 1015.08 1014.77
1007.28 1007.18 1007.01 1006.80 1006.57 1006.36 1006.19 1006.09 1006.09 1006.21 1006.43 1006.77 1007.21 1007.73 1008.30 1008.90 1009.51 1010.10 1010.67 1011.19 1011.69 1012.15 1012.58 1013.00 1013.40 1013.78 1014.15 1014.49 1014.79 1015.06 1015.26 1015.41 1015.49 1015.52 1015.50 1015.43 1015.34 1015.21 1015.06 1014.88 1014.67 1014.41 1014.11 1013.74
Thickness
5649 5641 5639 5643 5645 5645 5644 5641 5640 5647 5657 5657 5657 5665 5681 5687 5684 5683 5683 5683 5684 5685 5686 5685 5684 5683 5681 5679 5676 5672 5667 5661 5656 5649 5643 5637 5631 5627 5623 5620 5617 5613 5610 5606
5632 5633 5645 5645 5641 5639 5637 5633 5633 5641 5650 5649 5649 5658 5675 5680 5683 5686 5686 5684 5683 5680 5679 5678 5677 5675 5674 5671 5669 5666 5661 5656 5651 5646 5640 5634 5628 5622 5618 5614 5610 5607 5604 5600
5628 5639 5642 5636 5633 5629 5628 5627 5630 5632 5639 5643 5641 5651 5667 5678 5681 5684 5684 5684 5681 5679 5675 5672 5669 5667 5665 5663 5661 5659 5655 5650 5645 5640 5633 5626 5620 5615 5610 5606 5603 5599 5596 5593
5623 5633 5634 5629 5628 5625 5621 5630 5629 5628 5623 5619 5628 5624 5658 5668 5673 5679 5679 5676 5675 5674 5670 5666 5663 5660 5657 5655 5653 5651 5647 5643 5639 5634 5629 5623 5616 5609 5604 5599 5595 5591 5588 5585
5619 5626 5627 5625 5629 5625 5625 5631 5625 5623 5617 5611 5617 5613 5645 5659 5665 5676 5676 5672 5670 5668 5664 5661 5658 5655 5651 5647 5645 5643 5639 5635 5631 5627 5623 5617 5610 5603 5596 5592 5587 5583 5580 5577
5619 5625 5627 5629 5632 5627 5624 5617 5610 5601 5600 5598 5612 5605 5625 5650 5663 5671 5675 5669 5666 5661 5657 5654 5650 5646 5642 5638 5636 5634 5631 5626 5623 5619 5615 5610 5603 5596 5589 5584 5579 5575 5571 5568
5609 5617 5624 5628 5621 5619 5616 5603 5589 5590 5585 5592 5608 5604 5624 5657 5663 5665 5668 5667 5661 5655 5650 5646 5642 5638 5634 5631 5628 5626 5624 5618 5614 5611 5607 5602 5597 5591 5585 5578 5573 5567 5563 5559
5595 5601 5615 5620 5620 5611 5607 5604 5589 5584 5583 5589 5600 5599 5632 5657 5660 5661 5662 5662 5656 5650 5646 5643 5639 5634 5630 5626 5622 5619 5616 5611 5607 5603 5598 5594 5589 5583 5578 5572 5566 5561 5556 5551
5598 5600 5616 5618 5621 5615 5600 5597 5601 5586 5583 5581 5591 5605 5629 5656 5657 5657 5656 5654 5649 5646 5642 5638 5633 5629 5624 5621 5617 5614 5610 5605 5600 5595 5590 5585 5580 5576 5570 5564 5559 5553 5548 5543
5604 5595 5606 5610 5611 5609 5606 5599 5584 5580 5574 5575 5586 5598 5617 5642 5650 5650 5649 5647 5644 5640 5636 5632 5628 5624 5619 5615 5611 5607 5603 5599 5593 5588 5583 5578 5573 5568 5562 5556 5550 5545 5540 5535
5603 5595 5594 5597 5599 5598 5594 5592 5590 5580 5576 5572 5576 5598 5627 5635 5642 5641 5643 5642 5638 5635 5633 5629 5624 5619 5614 5609 5604 5600 5596 5591 5586 5581 5576 5570 5564 5559 5553 5548 5542 5536 5531 5526
5598 5588 5582 5589 5599 5601 5599 5595 5588 5579 5574 5569 5570 5595 5634 5634 5634 5635 5637 5638 5635 5632 5629 5624 5619 5613 5608 5603 5599 5594 5590 5585 5580 5574 5568 5562 5556 5550 5544 5539 5533 5528 5522 5517
5596 5583 5575 5580 5584 5589 5591 5591 5592 5589 5578 5562 5566 5595 5629 5628 5631 5633 5633 5632 5630 5627 5622 5617 5612 5609 5605 5600 5595 5590 5584 5579 5573 5567 5561 5554 5548 5542 5536 5530 5524 5519 5513 5508
5600 5584 5585 5585 5589 5589 5586 5588 5587 5582 5574 5568 5575 5596 5616 5622 5625 5627 5627 5626 5623 5621 5618 5614 5610 5606 5602 5597 5591 5585 5578 5573 5566 5560 5553 5546 5540 5534 5528 5522 5516 5510 5504 5499
5593 5583 5585 5591 5595 5589 5591 5591 5585 5583 5586 5583 5591 5594 5613 5619 5619 5621 5622 5620 5618 5616 5614 5611 5608 5603 5597 5591 5586 5580 5573 5566 5559 5552 5545 5539 5533 5526 5519 5513 5507 5501 5495 5490
5585 5582 5580 5584 5587 5585 5586 5588 5585 5585 5588 5586 5589 5596 5615 5615 5614 5613 5613 5612 5612 5613 5612 5609 5604 5599 5594 5589 5582 5575 5567 5560 5552 5545 5538 5531 5523 5516 5510 5504 5498 5491 5486 5480
5576 5574 5570 5570 5578 5578 5575 5588 5587 5586 5588 5589 5590 5605 5614 5610 5610 5611 5610 5608 5608 5610 5608 5604 5600 5596 5591 5585 5579 5570 5562 5552 5544 5537 5529 5522 5515 5508 5501 5495 5488 5482 5476 5471
5576 5570 5562 5559 5564 5558 5590 5599 5598 5594 5595 5594 5598 5604 5608 5608 5608 5606 5605 5604 5604 5604 5601 5598 5593 5588 5583 5576 5569 5561 5552 5543 5535 5528 5520 5513 5506 5499 5492 5485 5479 5473 5467 5461
5576 5569 5551 5548 5554 5564 5580 5593 5592 5588 5592 5599 5598 5602 5602 5599 5598 5601 5602 5599 5600 5598 5594 5589 5585 5579 5572 5566 5558 5550 5540 5532 5525 5518 5511 5504 5497 5490 5482 5475 5469 5463 5457 5451
5559 5564 5552 5543 5551 5557 5582 5597 5595 5590 5587 5603 5598 5597 5593 5588 5586 5596 5598 5593 5590 5586 5582 5577 5572 5566 5560 5554 5547 5539 5530 5522 5516 5510 5503 5495 5488 5481 5474 5467 5460 5454 5448 5442
5549 5548 5547 5544 5550 5558 5581 5589 5587 5576 5587 5602 5597 5593 5584 5582 5587 5587 5584 5581 5577 5573 5568 5564 5559 5553 5547 5541 5535 5527 5519 5514 5508 5500 5493 5485 5478 5471 5464 5457 5450 5443 5437 5432
5554 5542 5539 5537 5543 5558 5583 5577 5580 5588 5594 5595 5592 5588 5581 5579 5577 5574 5571 5567 5563 5559 5554 5550 5545 5539 5533 5528 5523 5516 5509 5504 5496 5489 5481 5474 5467 5460 5454 5446 5439 5432 5425 5419
5556 5565 5561 5562 5570 5580 5578 5583 5586 5585 5585 5587 5584 5582 5577 5571 5567 5564 5560 5555 5550 5546 5541 5536 5531 5525 5519 5515 5511 5505 5498 5491 5484 5477 5470 5463 5456 5448 5441 5434 5428 5421 5413 5407
5545 5554 5551 5554 5563 5571 5574 5575 5578 5577 5579 5579 5577 5573 5567 5564 5560 5554 5548 5542 5538 5533 5529 5524 5519 5513 5507 5502 5497 5492 5485 5479 5472 5465 5458 5451 5443 5437 5430 5423 5416 5409 5402 5395
5552 5542 5546 5552 5562 5566 5570 5569 5572 5570 5569 5569 5566 5562 5559 5556 5551 5545 5538 5533 5527 5522 5517 5512 5507 5502 5496 5490 5485 5479 5473 5467 5460 5453 5445 5439 5432 5426 5419 5413 5406 5399 5393 5384
5538 5544 5550 5558 5564 5563 5569 5572 5567 5563 5561 5559 5556 5552 5549 5545 5542 5535 5528 5522 5517 5511 5505 5500 5495 5490 5484 5478 5472 5466 5461 5455 5448 5441 5434 5427 5421 5414 5407 5401 5397 5392 5384 5379